* Astronomy

Members Login
Username 
 
Password 
    Remember Me  
Post Info TOPIC: HAWKSAT 1 satellite re-entry


L

Posts: 131433
Date:
HAWKSAT 1 satellite re-entry
Permalink  
 


hawksat1.gif


Re-entry possibly observed from Oak Cliff Dallas



__________________


L

Posts: 131433
Date:
Permalink  
 

Update:
The HAWKSAT 1 satellite is predicted to re-enter the Earths atmosphere on the 4th September, 2011 @ 19:11 GMT  ± 2 hours.

HAWKSAT 1
1 35004U 09028D   11247.64656856  .16152067  73217-5  10011-2 0  7842
2 35004 040.4403 342.9642 0002956 038.0069 322.2231 16.41039951130139

Period:       88.85 minutes
Inclination: 40.43°
Apogee:     225 km
Perigee:     211 km
Revolution Number: 13014
Predicted Location:  10.6°N, 239.4°E



__________________


L

Posts: 131433
Date:
Permalink  
 

Update:
The HAWKSAT 1 satellite is predicted to re-enter the Earths atmosphere on the 4th September, 2011 @ 21:12 GMT  ± 48 hours.

HAWKSAT 1
1 35004U 09028D   11243.76168168  .01320024  11310-2  12939-2 0  7685
2 35004 040.4438 009.1320 0013736 021.0153 339.1250 16.10510010129509

Period:       89.59 minutes
Inclination: 40.45°
Apogee:     263 km
Perigee:     245 km
Revolution Number: 13015
Predicted Location:  32°S, 354°E



__________________


L

Posts: 131433
Date:
Permalink  
 

Update:
The HAWKSAT 1 satellite is predicted to re-enter the Earths atmosphere on the 4th September, 2011 @04:21 GMT  ± 120 hours.

HAWKSAT 1
1 35004U 09028D   11242.64462334  .01136738  74822-3  13245-2 0  7667
2 35004 040.4456 016.5402 0013521 020.0141 340.1092 16.07784163129324

Period:       89.69 minutes
Inclination: 40.45°
Apogee:     269 km
Perigee:     250 km
Revolution Number: 13004
Predicted Location:  1.8°S, 121.5°E



__________________


L

Posts: 131433
Date:
Permalink  
 

Update:
The HAWKSAT 1 satellite is predicted to re-enter the Earths atmosphere on the 4th September, 2011 @04:21 GMT  ± 120 hours.

HAWKSAT 1
1 35004U 09028D   11241.83675506  .01022642  56771-3  13253-2 0  7631
2 35004 040.4458 021.8868 0014728 015.4468 344.6741 16.06026073129194

Period:       89.7 minutes
Inclination: 40.45°
Apogee:     269 km
Perigee:     251 km
Revolution Number: 13004
Predicted Location:  1.8°S, 121.5°E



__________________


L

Posts: 131433
Date:
Permalink  
 

Update:
The HAWKSAT 1 satellite is predicted to re-enter the Earths atmosphere on the 4th September, 2011 @04:21 GMT  ± 120 hours.

HAWKSAT 1
1 35004U 09028D   11239.15896239  .00713436  23914-3  12286-2 0  7546
2 35004 040.4469 039.5262 0014140 002.2255 357.8634 16.01291109128764

Period:       90.02 minutes
Inclination: 40.45°
Apogee:     286 km
Perigee:     265 km
Revolution Number: 13004
Predicted Location:  1.8°S, 121.5°E



__________________


L

Posts: 131433
Date:
Permalink  
 

Update:
The HAWKSAT 1 satellite is predicted to re-enter the Earths atmosphere on the 26th August, 2011 @ --:-- GMT  ± -- hours.

HAWKSAT 1
1 35004U 09028D   11235.84931295  .00461474  93164-4  10095-2 0  7486
2 35004 040.4473 061.1771 0015763 347.9685 012.0770 15.97052964128234

Period:       90.17 minutes
Inclination: 40.45°
Apogee:     293 km
Perigee:     272 km
Revolution Number: -
Predicted Location:  -



__________________


L

Posts: 131433
Date:
Permalink  
 

Update:
The HAWKSAT 1 satellite is predicted to re-enter the Earths atmosphere on the 2nd September, 2011 @ --:-- GMT  ± -- hours.

HAWKSAT 1
1 35004U 09028D   11230.84058257  .00332918  48388-4  89932-3 0  7350
2 35004 040.4479 093.7447 0016327 319.6094 040.3527 15.93182378127432

Period:       90.4 minutes
Inclination: 40.45°
Apogee:     306 km
Perigee:     283 km
Revolution Number: -
Predicted Location:  -



__________________


L

Posts: 131433
Date:
Permalink  
 

The HAWKSAT 1 satellite that was launched on the 19th May, 2009, from the Wallops Flight Facility, with the TacSat-3 satellite mission is predicted to re-enter the Earths atmosphere on the 7th September, 2011 @ --:-- GMT  ± -- hours.

HAWKSAT 1
1 35004U 09028D   11194.73326399  .00137752  00000-0  74451-3 0  6894
2 35004 040.4491 324.9986 0018084 061.0691 299.1953 15.78631655121707

Period:       91.21 minutes
Inclination: 40.45°
Apogee:     346 km
Perigee:     322 km
Revolution Number: -
Predicted Location:  -



__________________
Page 1 of 1  sorted by
 
Quick Reply

Please log in to post quick replies.



Create your own FREE Forum
Report Abuse
Powered by ActiveBoard